weather.gov     
National Weather Service

Regional Weather Roundup
NWS Homepage
This page is being discontinued on March 12, 2014.
The same data is available at this site. Please update your bookmarks.
Thank you, and we apologize for the inconvenience.
Please send an email to SR-SRH.Webmaster@noaa.gov with any concerns.


Current Version
Previous Version:    01  02  03  04  05  06  07  08  09  10  11  12  13  14  15  16  17  18  19  20  21  22  23  24  25  26  27  28  29  
[Printable]
200
ASUS44 KLCH 221010
RWRLCH
RWRLCH
REGIONAL WEATHER ROUNDUP
NATIONAL WEATHER SERVICE LAKE CHARLES LA
500 AM CDT MON SEP 22 2014

Note: "fair" indicates few or no clouds below 12,000 feet with no
significant weather and/or obstructions to visibility.


ACROSS SOUTHEAST TEXAS

CITY           SKY/WX    TMP DP  RH WIND       PRES   REMARKS
BEAUMONT       CLEAR     72  70  93 VRB6G26   30.02S FOG
BEAUMONT CITY    N/A     70  70  99 CALM      30.04R FOG
ORANGE         SUNNY    N/A N/A N/A CALM      30.04S HAZE
JASPER         PTCLDY    69  68  96 CALM      30.06S FOG
$$

ACROSS CENTRAL LOUISIANA

CITY           SKY/WX    TMP DP  RH WIND       PRES   REMARKS
LEESVILLE      MOCLDY    74  70  87 N8        30.05R
FULLERTON      PTSUNNY   73  69  87 CALM      30.03R
ALEXANDRIA INT CLEAR     73  70  90 N6        30.03S
ESLER FIELD    CLEAR     75  70  84 CALM      30.05R
DERIDDER         N/A     71  70  95 CALM      30.06R FOG
OAKDALE        SUNNY     68  66  95 CALM      30.03S FOG
OPELOUSAS        N/A     68  67  97 CALM      30.02S
$$

ACROSS SOUTHWEST AND SOUTH CENTRAL LOUISIANA

CITY           SKY/WX    TMP DP  RH WIND       PRES   REMARKS
SULPHUR        MOSUNNY   71  71  98 CALM      30.03S
LAKE CHARLES   CLEAR     71  69  93 CALM      30.02S
CHENNAULT INT  NOT AVBL
CAMERON PHI      N/A     75  73  94 CALM      30.05R
DEQUINCY         N/A     69  68  98 CALM      30.03S FOG
JENNINGS         N/A     70  69  98 CALM      30.02S
LAFAYETTE      CLEAR     72  71  97 CALM      30.02S
NEW IBERIA     CLEAR     70  68  93 N3        30.02S
ABBEVILLE        N/A     66  66 100 CALM      30.01S FOG
PATTERSON      CLEAR     70  68  94 CALM      30.04R
SALT POINT       N/A     74  71  91 CALM      30.00S
$$

SELECTED SITES ACROSS THE REGION

CITY           SKY/WX    TMP DP  RH WIND       PRES   REMARKS
HOUSTON BUSH   PTCLDY    74  70  87 CALM      30.04R
HOUSTON HOBBY  PTCLDY    74  71  91 CALM      30.03R
GALVESTON      CLEAR     79  76  90 N5        30.03S
COLLEGE STAT   PTCLDY    74  67  78 CALM      30.06S
CONROE         CLEAR     69  68  96 CALM      30.06R
HUNTSVILLE     CLEAR     71  67  87 N3        30.07R
LUFKIN         PTCLDY    75  69  81 N5        30.05R
SHREVEPORT     CLOUDY    76  64  66 NE9       30.09R
MONROE         PTCLDY    71  59  65 N5        30.09R
NATCHEZ MS     CLEAR     72  68  88 N6        30.05R
BATON ROUGE    CLEAR     69  67  93 CALM      30.02R
N.O. INTL ARPT PTCLDY    73  70  90 CALM      30.00S
SLIDELL        CLEAR     67  64  90 CALM      30.01R
$$

MARINE REPORTS

STATION/POSITION TIME  TEMP    WIND        PRES    VSBY  WAVE
                       AIR SEA DIR/SP/G                  HT/PER
                 (UTC) (F)     (DEG/KT/KT) (MB)    (MI)  (FT/S)
BUOY 30 S HIGH I 1000   82 83   30/  4/  6 1016.1R         2/ 6
SEA RIM ST PARK  1000   75     340/  4/  5 1017.2R
PORT ARTHUR      1000      83   10/  4/  5 1016.7R
SABINE PASS N    1000   80 83  350/  4/  5 1016.6R
TEXAS POINT      1000   78 83  340/  6/  7 1016.7R
CALCASIEU PASS   1000   77 83  360/  3/  4 1017.5R
LK CHARLES BEACH 1000   76 84              1016.7R
MARSH ISLAND     NOT AVBL
FRESH WATER LOCK 1000   75 83  350/  2/  4 1016.0S
AMERADA PASS     1000   74 81   CALM  /  2 1016.0R
$$




U.S. Dept. of Commerce
NOAA National Weather Service
1325 East West Highway
Silver Spring, MD 20910
E-mail: w-nws.webmaster@noaa.gov
Page last modified: May 16, 2007
NATIONAL WEATHER SERVICE: for Safety, for Work, for Fun - FOR LIFE